Location: *
(50.8160°S, 176.0219°W)
Time: 23:39:32
(UTC+00:00)

IRS-1C - Pass Details

Date: 19 May 2026
Orbit: 813 x 814 km, 99.0° (Epoch: 11 June)

Event Time Altitude Azimuth Distance (km) Brightness Sun altitude
Rises 17:26:57 0° 22° (NNE) 3,338 7.8 -17.4°
Reaches altitude 10° 17:29:16 10° 22° (NNE) 2,414 7.0 -17.0°
Maximum altitude 17:34:37 80° 108° (ESE) 844 4.2 -16.2°
Drops below altitude 10° 17:40:02 10° 194° (SSW) 2,444 6.3 -15.4°
Sets 17:42:24 0° 194° (SSW) 3,383 7.1 -15.0°
